Cahokia, IL

8:51 PM CST on December 13, 2019 (GMT -0600)
Saint Louis Downtown

Weather History for KCPS - October, 2019

Change the Weather History Date:

Thursday, October 31, 2019

  Actual Average Record
Temperature  
Mean Temperature 34 °F -  
Max Temperature 37 °F 61 °F 87 °F (1950)
Min Temperature 26 °F 51 °F 26 °F (2019)
Degree Days  
Heating Degree Days 32    
Moisture  
Dew Point 27 °F    
Average Humidity 77    
Maximum Humidity 93    
Minimum Humidity 57    
Precipitation  
Precipitation 0.05 in - - ()
Sea Level Pressure  
Sea Level Pressure 30.12 in    
Wind  
Wind Speed 14 mph (WNW)    
Max Wind Speed 22 mph    
Max Gust Speed 34 mph    
Visibility 10 miles    
Events Rain    
Averages and records for this station are not official NWS values.
T = Trace of Precipitation, MM = Missing Value Source: NWS Daily Summary

Daily Weather History Graph

Daily Weather History Graph

Search for Another Location

Airport or City:

Astronomy

Oct. 31, 2019 Rise Set
Actual Time 7:25 AM CDT 6:01 PM CDT
Civil Twilight 6:58 AM CDT 6:29 PM CDT
Nautical Twilight 6:27 AM CDT 7:00 PM CDT
Astronomical Twilight 5:56 AM CDT 7:31 PM CDT
Moon 11:12 AM CDT (10/31) 9:00 PM CDT (10/31)
Length of Visible Light 11h 30m
Length of Day
10h 35m
Waxing Crescent, 16% of the Moon is Illuminated
Oct 31
Waxing Crescent
Nov 4
First Quarter
Nov 12
Full
Nov 19
Last Quarter
Nov 26
New

Hourly Weather History & Observations

Time (CDT) Temp. Windchill Dew Point Humidity Pressure Visibility Wind Dir Wind Speed Gust Speed Precip Events Conditions
12:02 AM 37.9 °F 30.9 °F 36.0 °F 93% 29.96 in 10.0 mi NNW 10.4 mph - N/A   Overcast
12:53 AM 37.0 °F 27.7 °F 35.1 °F 93% 29.97 in 7.0 mi NW 16.1 mph 25.3 mph 0.05 in Rain Light Rain
1:24 AM 37.0 °F 27.7 °F 34.0 °F 89% 29.96 in 7.0 mi NW 16.1 mph 20.7 mph 0.00 in   Overcast
1:53 AM 36.0 °F 25.6 °F 33.1 °F 89% 29.98 in 9.0 mi NW 18.4 mph 27.6 mph 0.00 in   Overcast
2:53 AM 35.1 °F 25.9 °F 32.0 °F 89% 29.99 in 8.0 mi NW 13.8 mph 23.0 mph N/A   Overcast
3:53 AM 35.1 °F 25.9 °F 32.0 °F 89% 30.00 in 8.0 mi WNW 13.8 mph 21.9 mph 0.00 in   Overcast
4:00 AM 34.0 °F 23.8 °F 30.9 °F 89% 29.99 in 7.0 mi NW 16.1 mph 23.0 mph N/A   Overcast
4:53 AM 34.0 °F 23.0 °F 30.0 °F 85% 29.99 in 10.0 mi NW 18.4 mph 26.5 mph N/A   Overcast
5:53 AM 34.0 °F 23.0 °F 30.0 °F 85% 30.00 in 10.0 mi WNW 18.4 mph 25.3 mph N/A   Overcast
6:09 AM 34.0 °F 23.4 °F 28.9 °F 82% 30.00 in 10.0 mi NW 17.3 mph 28.8 mph N/A   Overcast
6:53 AM 33.1 °F 21.5 °F 28.0 °F 82% 30.01 in 10.0 mi WNW 19.6 mph 32.2 mph N/A   Overcast
7:53 AM 32.0 °F 20.8 °F 27.0 °F 82% 30.03 in 10.0 mi WNW 17.3 mph 32.2 mph N/A   Overcast
8:53 AM 32.0 °F 20.5 °F 26.1 °F 79% 30.07 in 10.0 mi WNW 18.4 mph 27.6 mph N/A   Overcast
9:53 AM 32.0 °F 20.1 °F 25.0 °F 75% 30.10 in 10.0 mi WNW 19.6 mph 34.5 mph N/A   Overcast
10:53 AM 32.0 °F 19.5 °F 25.0 °F 75% 30.12 in 10.0 mi WNW 21.9 mph 28.8 mph N/A   Overcast
11:53 AM 33.1 °F 21.9 °F 24.1 °F 70% 30.14 in 10.0 mi WNW 18.4 mph 27.6 mph N/A   Overcast
12:53 PM 33.1 °F 22.6 °F 24.1 °F 70% 30.16 in 10.0 mi WNW 16.1 mph 27.6 mph N/A   Overcast
1:53 PM 33.1 °F 23.4 °F 23.0 °F 66% 30.17 in 10.0 mi WNW 13.8 mph 25.3 mph N/A   Overcast
2:42 PM 34.0 °F 23.8 °F 24.1 °F 67% 30.17 in 10.0 mi WNW 16.1 mph 28.8 mph N/A   Overcast
2:53 PM 34.0 °F 23.8 °F 23.0 °F 64% 30.19 in 10.0 mi WNW 16.1 mph 31.1 mph N/A   Overcast
3:53 PM 36.0 °F 26.7 °F 24.1 °F 62% 30.20 in 10.0 mi West 15.0 mph 24.2 mph N/A   Overcast
4:53 PM 37.0 °F 28.9 °F 24.1 °F 59% 30.22 in 10.0 mi WNW 12.7 mph 20.7 mph N/A   Mostly Cloudy
5:53 PM 37.0 °F 29.8 °F 23.0 °F 57% 30.24 in 10.0 mi WNW 10.4 mph - N/A   Clear
6:53 PM 34.0 °F 31.0 °F 23.0 °F 64% 30.26 in 10.0 mi West 3.5 mph - N/A   Clear
7:53 PM 33.1 °F - 24.1 °F 70% 30.29 in 10.0 mi Calm Calm - N/A   Clear
8:53 PM 30.9 °F 27.5 °F 25.0 °F 79% 30.30 in 10.0 mi SW 3.5 mph - N/A   Clear
9:53 PM 32.0 °F 27.5 °F 25.0 °F 75% 30.31 in 10.0 mi SW 4.6 mph - N/A   Clear
10:53 PM 30.9 °F 27.5 °F 24.1 °F 76% 30.31 in 10.0 mi SW 3.5 mph - N/A   Clear
11:53 PM 26.1 °F - 24.1 °F 92% 30.31 in 10.0 mi Calm Calm - N/A   Clear